Location: Moena
(46.3667°N, 11.6500°E)
Time: 21:43:05
(UTC+00:00)

GP-B - Pass Details

Date: 03 March 2021
Orbit: 631 x 635 km, 89.8° (Epoch: 22 April)

Event Time Altitude Azimuth Distance (km) Brightness Sun altitude
Rises 17:44:36 0° 150° (SSE) 2,918 6.2 -8.1°
Reaches altitude 10° 17:47:00 10° 139° (SE) 2,015 5.3 -8.5°
Maximum altitude 17:50:51 30° 79° (E) 1,145 3.9 -9.1°
Drops below altitude 10° 17:54:44 10° 19° (NNE) 2,031 5.5 -9.8°
Sets 17:57:10 0° 8° (N) 2,945 6.5 -10.2°
